Woodland Hills, California, United States (91364)
Lat: 34.17N, Lon: 118.61W
Wx Zone: CAZ547
Local Info
Past Weather Observations for Today

NOTE: This archive is for the closest National Weather Service station to Woodland Hills. Information may differ from the station used for current weather conditions.

Click here for Long-term Archive

Time Weather Temperature Dewpoint Humidity Pressure Winds Precip Visibility
22:51
Clear
64°F / 18°C 45°F / 7°C 49% 30.06 in
(1018 mb)
N 11.5 mph
(N 19 kph)
- 10SM
21:51
Clear
66°F / 19°C 45°F / 7°C 46% 30.06 in
(1018 mb)
N 10.4 mph
(N 17 kph)
- 10SM
20:51
Clear
66°F / 19°C 45°F / 7°C 46% 30.06 in
(1018 mb)
NNW 12.7 mph
(NNW 20 kph)
- 10SM
19:51
Clear
64°F / 18°C 46°F / 8°C 52% 30.06 in
(1018 mb)
NNW 24.2 mph
(NNW 39 kph)
- 10SM
18:51
Clear
64°F / 18°C 46°F / 8°C 52% 30.06 in
(1018 mb)
N 19.6 mph
(N 32 kph)
- 10SM
17:51
Clear
64°F / 18°C 48°F / 9°C 56% 30.04 in
(1017 mb)
N 25.3 mph
(N 41 kph)
- 10SM
16:51
Clear
66°F / 19°C 48°F / 9°C 52% 30.06 in
(1018 mb)
N 19.6 mph
(N 32 kph)
- 10SM
15:51
Clear
68°F / 20°C 48°F / 9°C 49% 30.04 in
(1017 mb)
N 28.8 mph
(N 46 kph)
- 10SM
14:51
Clear
70°F / 21°C 48°F / 9°C 46% 30.04 in
(1017 mb)
N 21.9 mph
(N 35 kph)
- 10SM
13:51
Clear
70°F / 21°C 48°F / 9°C 46% 30.04 in
(1017 mb)
N 26.5 mph
(N 43 kph)
- 10SM
12:51
Clear
73°F / 23°C 48°F / 9°C 41% 30.04 in
(1017 mb)
N 24.2 mph
(N 39 kph)
- 10SM
11:51
Clear
70°F / 21°C 48°F / 9°C 46% 30.06 in
(1018 mb)
N 29.9 mph
(N 48 kph)
- 10SM
11:41
Clear
70°F / 21°C 48°F / 9°C 46% 30.09 in
(1019 mb)
N 27.6 mph
(N 44 kph)
- 10SM
10:51
Clear
66°F / 19°C 48°F / 9°C 52% 30.12 in
(1020 mb)
NE 8.1 mph
(NE 13 kph)
- 10SM
09:51
Clear
Hazy
59°F / 15°C 48°F / 9°C 68% 30.15 in
(1021 mb)
S 5.8 mph
(S 9 kph)
- 6SM
08:51
Clear
Hazy
55°F / 13°C 46°F / 8°C 72% 30.15 in
(1021 mb)
SE 9.2 mph
(SE 15 kph)
- 6SM
07:51
Clear
54°F / 12°C 46°F / 8°C 77% 30.15 in
(1021 mb)
ENE 3.5 mph
(ENE 6 kph)
- 7SM
06:51
Clear
61°F / 16°C 45°F / 7°C 55% 30.12 in
(1020 mb)
Variable 6.9 mph
(Variable 11 kph)
- 10SM
05:51
Clear
61°F / 16°C 45°F / 7°C 55% 30.12 in
(1020 mb)
NNW 6.9 mph
(NNW 11 kph)
- 10SM
04:51
Clear
52°F / 11°C 46°F / 8°C 82% 30.12 in
(1020 mb)
Variable 3.5 mph
(Variable 6 kph)
- 7SM
03:51
Clear
Hazy
54°F / 12°C 46°F / 8°C 77% 30.12 in
(1020 mb)
Calm - 6SM
02:51
Clear
Fog And Mist
50°F / 10°C 46°F / 8°C 88% 30.12 in
(1020 mb)
ENE 3.5 mph
(ENE 6 kph)
- 5SM
01:51
Clear
Fog And Mist
52°F / 11°C 46°F / 8°C 82% 30.12 in
(1020 mb)
Calm - 6SM
00:51
Clear
Fog And Mist
50°F / 10°C 46°F / 8°C 88% 30.15 in
(1021 mb)
Calm - 6SM
Time Weather Temperature Dewpoint Humidity Pressure Winds Precip Visibility


Weather for websites

WeatherForYou.com, LLC is not responsible for any damages or problems caused by this service. Current weather conditions are obtained from the closest station including government and personal stations which may have varying degrees of accuracy. Weather forecasts are derived from the NOAA NDFD. Like all things, this site belongs to Jesus Christ... He just trusts me to maintain it. If you have any questions or comments email webmaster@weatherforyou.com

Copyright © 2014, WeatherForYou.com LLC. All rights reserved.